Regional Weather Roundup
Issued by NWS Green Bay, WI

Home | Current Version | Previous Version | Graphics & Text | Print | Product List | Glossary Off
Versions: 1 2 3 4 5 6 7 8 9 10 11 12 13 14 15 16 17 18 19 20 21 22 23 24 25 26 27 28 29 30 31 32 33 34 35 36 37 38 39 40 41 42 43 44 45 46 47 48 49 50

302
ASUS43 KGRB 300600
RWRGRB

NORTH-CENTRAL AND NORTHEAST WISCONSIN REGIONAL WEATHER ROUNDUP
NATIONAL WEATHER SERVICE GREEN BAY WI
100 AM CDT MON MAY 30 2016

WIZ005-009-010>012-018-019-300700-
NORTH CENTRAL WISCONSIN

CITY           SKY/WX    TMP DP  RH WIND       PRES   REMARKS
IRONWOOD       CLEAR     54  52  94 W5        29.91S
MANITOWISH WTR NOT AVBL
ARBOR VITAE    NOT AVBL
EAGLE RIVER    NOT AVBL
LAND O LAKES   NOT AVBL
RHINELANDER    CLEAR     53  51  93 W5        29.97S
PHILLIPS       CLEAR     51  51 100 CALM      29.97S FOG
ANTIGO         NOT AVBL
TOMAHAWK       NOT AVBL
MERRILL        CLEAR    N/A N/A N/A CALM      29.98S
$$

WIZ013-073-300700-
NORTHEAST WISCONSIN

CITY           SKY/WX    TMP DP  RH WIND       PRES   REMARKS
IRON MOUNTAIN  CLEAR     59  55  87 W5        29.92R
MARINETTE      CLEAR     59  55  88 CALM      29.95R
$$

WIZ017-030-035>037-045-300700-
CENTRAL WISCONSIN

CITY           SKY/WX    TMP DP  RH WIND       PRES   REMARKS
MEDFORD        NOT AVBL
WAUSAU         PTCLDY    62  56  80 NW6       29.96S
MOSINEE        NOT AVBL
MARSHFIELD     CLOUDY    63  56  78 N3        29.98R
WISC RAPIDS    CLOUDY    60  56  86 SW5       29.99S
STEVENS POINT  NOT AVBL
WAUPACA        NOT AVBL
SHAWANO        NOT AVBL
CLINTONVILLE   NOT AVBL
WAUTOMA        PTCLDY   N/A N/A N/A CALM      29.99S
$$

WIZ038-039-048-051-300700-
FOX VALLEY

CITY           SKY/WX    TMP DP  RH WIND       PRES   REMARKS
NWS GREEN BAY  CLEAR     63  57  81 W3        29.95S
APPLETON       NOT AVBL
OSHKOSH        CLEAR     65  56  72 SW3       29.97S
FOND DU LAC    CLEAR     63  58  83 W6        29.98S
$$

WIZ022-050-052-300700-
EAST CENTRAL WISCONSIN

CITY           SKY/WX    TMP DP  RH WIND       PRES   REMARKS
EPHRAIM        NOT AVBL
STURGEON BAY   NOT AVBL
MANITOWOC      NOT AVBL
SHEBOYGAN      CLEAR     60  56  86 W5        29.97R
$$

LMZ563-521-522-541>543-300700-
LAKESHORE

STATION/POSITION TIME  TEMP    WIND        PRES    VSBY  WAVE
                       AIR SEA DIR/SP/G                  HT/PER
                 (UTC) (F)     (DEG/KT/KT) (MB)    (MI)  (FT/S)
SHEBOYGAN LKSHOR 0500   68     260/  7/  8 1014.6R
KEWAUNEE LKSHORE 0500   65     300/  3/  4 1013.4R
NORTHPORT PIER   0500   63     260/  4/  7 1012.9S
N MID LAKE BUOY  0450   54 47  250/  8/ 10 1012.4R         2/ 5
CHAMBERS ISLAND  0500   63     220/  3/  5 1013.2
MENOMINEE LKSHOR 0500   66     220/  4/  5 1012.4R
$$




USA.gov is the U.S. government's official web portal to all federal, state and local government web resources and services.